Terminal Aerodrome Forecast
Issued by NWS Des Moines, IA

Home | Current Version | Previous Version | Text Only | Print | Product List | Glossary On
Versions: 1 2 3 4 5 6 7 8 9 10 11 12 13 14 15 16 17 18 19 20 21 22 23 24 25 26 27 28 29 30 31 32 33 34 35 36 37 38 39 40 41 42 43 44
000
FTUS43 KDMX 271135
TAFDSM
TAF
KDSM 271135Z 2712/2812 33013KT P6SM OVC008
     FM271600 29015KT P6SM OVC020
     FM272200 29009KT P6SM OVC035
     FM280600 26007KT P6SM SCT040
     FM281100 22004KT P6SM SCT050=

USA.gov is the U.S. government's official web portal to all federal, state and local government web resources and services.